Trieste, Italy

7:59 PM CET on February 12, 2016 (GMT +0100)
Trieste

Weather History for LIVT - October, 2012

Change the Weather History Date:

Saturday, October 13, 2012

  Actual Average Record
Temperature  
Mean Temperature 60 °F -  
Max Temperature 64 °F 60 °F 80 °F (2008)
Min Temperature 55 °F 51 °F 50 °F (2004)
Degree Days  
Heating Degree Days 6    
Growing Degree Days 10 (Base 50)    
Moisture  
Dew Point 50 °F    
Average Humidity 66    
Maximum Humidity 88    
Minimum Humidity 51    
Precipitation  
Precipitation 0.08 in 0.13 in - ()
Sea Level Pressure  
Sea Level Pressure 29.87 in    
Wind  
Wind Speed 13 mph ()    
Max Wind Speed 18 mph    
Max Gust Speed 38 mph    
Visibility 6.5 miles    
Events Rain    
Averages and records for this station are not official NWS values.
T = Trace of Precipitation, MM = Missing Value Source: Averaged Metar Reports

Daily Weather History Graph

Daily Weather History Graph

Search for Another Location

Airport or City:

Trip Planner

Search our weather history database for the weather conditions in past years. The results will help you decide how hot, cold, wet, or windy it might be!

Date:

Astronomy

Oct. 13, 2012 Rise Set
Actual Time 7:19 AM CEST 6:22 PM CEST
Civil Twilight 6:49 AM CEST 6:52 PM CEST
Nautical Twilight 6:14 AM CEST 7:26 PM CEST
Astronomical Twilight 5:40 AM CEST 8:01 PM CEST
Moon 4:43 AM CEST (10/13) 5:00 PM CEST (10/13)
Length of Visible Light 12h 03m
Length of Day
11h 03m
Waning Crescent, 6% of the Moon is Illuminated
Oct 13
Waning Crescent
Oct 15
New
Oct 22
First Quarter
Oct 29
Full
Nov 7
Last Quarter

Hourly Weather History & Observations

Time (CEST) Temp. Dew Point Humidity Pressure Visibility Wind Dir Wind Speed Gust Speed Precip Events Conditions
1:55 AM 59.0 °F 51.8 °F 77% 29.86 in 6.2 mi ENE 16.1 mph 31.1 mph N/A   Partly Cloudy
2:00 AM 59 °F 51 °F 67% 29.88 in 6 mi ENE 16.1 mph - -   Partly Cloudy
2:55 AM 60.8 °F 51.8 °F 72% 29.86 in 6.2 mi ENE 16.1 mph 32.2 mph N/A   Partly Cloudy
3:55 AM 60.8 °F 50.0 °F 68% 29.86 in - ENE 16.1 mph 32.2 mph N/A   Clear
4:55 AM 62.6 °F 50.0 °F 63% 29.89 in 6.2 mi ENE 12.7 mph 29.9 mph N/A   Partly Cloudy
6:55 AM 62.6 °F 50.0 °F 63% 29.89 in 6.2 mi NE 16.1 mph 36.8 mph N/A   Scattered Clouds
7:55 AM 62.6 °F 50.0 °F 63% 29.89 in 6.2 mi NE 15.0 mph 32.2 mph N/A   Partly Cloudy
8:00 AM 63 °F 49 °F 51% 29.90 in 6 mi NE 15.0 mph - - Rain Light Rain Showers
8:55 AM 62.6 °F 48.2 °F 59% 29.89 in - ENE 16.1 mph 38.0 mph N/A   Clear
10:55 AM 64.4 °F 50.0 °F 59% 29.92 in - ENE 18.4 mph 32.2 mph N/A   Clear
11:55 AM 64.4 °F 48.2 °F 56% 29.92 in 6.2 mi ENE 13.8 mph 28.8 mph N/A   Mostly Cloudy
12:55 PM 60.8 °F 50.0 °F 68% 29.92 in 6.2 mi ENE 16.1 mph 34.5 mph N/A   Scattered Clouds
1:55 PM 62.6 °F 50.0 °F 63% 29.89 in 6.2 mi ENE 12.7 mph 29.9 mph N/A   Partly Cloudy
2:00 PM 63 °F 50 °F 53% 29.91 in 12 mi ENE 12.7 mph - -   Partly Cloudy
2:55 PM 62.6 °F 48.2 °F 59% 29.89 in 6.2 mi ENE 16.1 mph 32.2 mph N/A   Scattered Clouds
3:55 PM 62.6 °F 50.0 °F 63% 29.86 in 6.2 mi NE 11.5 mph - N/A   Scattered Clouds
4:55 PM 60.8 °F 48.2 °F 63% 29.86 in 6.2 mi NE 16.1 mph 38.0 mph N/A   Scattered Clouds
5:55 PM 60.8 °F 46.4 °F 59% 29.86 in 6.2 mi ENE 15.0 mph 34.5 mph N/A   Scattered Clouds
7:55 PM 55.4 °F 50.0 °F 82% 29.83 in 6.2 mi ENE 16.1 mph 32.2 mph N/A Rain Rain
8:55 PM 57.2 °F 50.0 °F 77% 29.86 in 6.2 mi ENE 12.7 mph 28.8 mph N/A   Scattered Clouds
9:55 PM 55.4 °F 51.8 °F 88% 29.83 in 6.2 mi East 10.4 mph 24.2 mph N/A Rain Rain
10:55 PM 57.2 °F 50.0 °F 77% 29.83 in 6.2 mi North 4.6 mph - N/A   Scattered Clouds
11:55 PM 57.2 °F 50.0 °F 77% 29.80 in 6.2 mi ENE 11.5 mph 25.3 mph N/A   Scattered Clouds